Weather History for Gwinn, MI

Change the Weather History Date:

Friday, January 31, 2014

  Actual Average (KESC) Record (KESC)
Temperature  
Mean Temperature 2 °F -  
Max Temperature 8 °F 26 °F 46 °F (1993)
Min Temperature -4 °F 6 °F -13 °F (2014)
Degree Days  
Heating Degree Days 63    
Moisture  
Dew Point -3 °F    
Average Humidity 77    
Maximum Humidity 86    
Minimum Humidity 61    
Precipitation  
Precipitation 0.00 in - - ()
Sea Level Pressure  
Sea Level Pressure 29.88 in    
Wind  
Wind Speed 6 mph (West)    
Max Wind Speed 13 mph    
Max Gust Speed -    
Visibility 10 miles    
Events Snow    
Averages and records for this station are not official NWS values.
T = Trace of Precipitation, MM = Missing Value Source: NWS Daily Summary

Daily Weather History Graph

Daily Weather History Graph

Search for Another Location

Airport:

Trip Planner

Search our weather history database for the weather conditions in past years. The results will help you decide how hot, cold, wet, or windy it might be!

Date:

Astronomy

Jan. 31, 2014 Rise Set
Actual Time 8:13 AM EST 5:52 PM EST
Civil Twilight 7:41 AM EST 6:24 PM EST
Nautical Twilight 7:05 AM EST 7:01 PM EST
Astronomical Twilight 6:30 AM EST 7:36 PM EST
Moon 8:17 AM EST (1/31) 7:24 PM EST (1/31)
Length of Visible Light 10h 43m
Length of Day
9h 38m
New Moon, 1% of the Moon is Illuminated
Jan 31
New Moon
Feb 6
First Quarter
Feb 14
Full
Feb 22
Last Quarter
Mar 1
New

Hourly Weather History & Observations

Time (EST) Temp. Windchill Dew Point Humidity Pressure Visibility Wind Dir Wind Speed Gust Speed Precip Events Conditions
12:16 AM 7.7 °F -2.4 °F 2.3 °F 79% 29.72 in 10.0 mi WNW 5.8 mph - N/A   Mostly Cloudy
12:37 AM 8.2 °F -4.1 °F 2.8 °F 79% 29.74 in 10.0 mi WNW 8.1 mph - N/A   Overcast
12:56 AM 8.2 °F -1.8 °F 3.2 °F 80% 29.74 in 5.0 mi NW 5.8 mph - N/A Snow Light Snow
1:17 AM 8.1 °F -5.3 °F 1.9 °F 76% 29.76 in 10.0 mi NW 9.2 mph - N/A   Overcast
1:36 AM 7.7 °F -4.8 °F 2.1 °F 78% 29.76 in 5.0 mi NW 8.1 mph - N/A Snow Light Snow
1:57 AM 8.2 °F -3.0 °F 2.3 °F 77% 29.77 in 5.0 mi WNW 6.9 mph - N/A Snow Light Snow
2:16 AM 8.1 °F -3.2 °F 2.3 °F 77% 29.78 in 7.0 mi NW 6.9 mph - N/A Snow Light Snow
2:37 AM 7.5 °F -2.6 °F 1.6 °F 77% 29.79 in 10.0 mi WNW 5.8 mph - N/A   Overcast
2:57 AM 7.0 °F 0.1 °F 1.8 °F 79% 29.80 in 10.0 mi WNW 3.5 mph - N/A   Overcast
3:16 AM 6.8 °F -4.8 °F 1.4 °F 79% 29.80 in 10.0 mi NW 6.9 mph - N/A   Overcast
3:37 AM 6.8 °F -3.5 °F 0.5 °F 75% 29.82 in 10.0 mi WNW 5.8 mph - N/A   Overcast
3:56 AM 6.3 °F -10.0 °F 0.3 °F 77% 29.83 in 10.0 mi West 12.7 mph - N/A   Overcast
4:17 AM 5.0 °F -5.6 °F -1.3 °F 75% 29.83 in 10.0 mi WNW 5.8 mph - N/A   Mostly Cloudy
4:37 AM 4.8 °F -10.2 °F -1.5 °F 75% 29.83 in 10.0 mi WNW 10.4 mph - N/A   Overcast
4:57 AM 3.9 °F -9.4 °F -2.2 °F 76% 29.83 in 10.0 mi NW 8.1 mph - N/A   Mostly Cloudy
5:16 AM 3.2 °F -7.8 °F -2.6 °F 77% 29.84 in 10.0 mi NW 5.8 mph - N/A   Mostly Cloudy
5:37 AM 3.0 °F -8.0 °F -2.7 °F 77% 29.85 in 10.0 mi WNW 5.8 mph - N/A   Overcast
5:56 AM 2.8 °F -6.6 °F -2.6 °F 78% 29.85 in 10.0 mi WNW 4.6 mph - N/A   Scattered Clouds
6:50 AM -0.4 °F - -4.0 °F 85% 29.87 in 10.0 mi Calm Calm - N/A   Clear
7:55 AM -4.0 °F -16.3 °F -7.6 °F 85% 29.91 in 10.0 mi WSW 5.8 mph - N/A   Clear
8:50 AM -4.0 °F -14.6 °F -7.6 °F 85% 29.92 in 10.0 mi WNW 4.6 mph - N/A   Clear
9:50 AM -2.2 °F -16.8 °F -7.6 °F 78% 29.94 in 10.0 mi West 8.1 mph - N/A   Clear
10:50 AM -0.4 °F -16.7 °F -7.6 °F 72% 29.96 in 10.0 mi West 10.4 mph - N/A   Clear
11:50 AM 1.4 °F -9.9 °F -7.6 °F 66% 29.97 in 10.0 mi WNW 5.8 mph - N/A   Clear
12:48 PM 3.2 °F -4.2 °F -5.8 °F 66% 29.97 in 10.0 mi West 3.5 mph - N/A   Clear
1:45 PM 5.0 °F -5.6 °F -5.8 °F 61% 29.97 in 10.0 mi West 5.8 mph - N/A   Clear
2:49 PM 6.8 °F -5.9 °F -4.0 °F 61% 29.96 in 10.0 mi WSW 8.1 mph - N/A   Clear
3:45 PM 6.8 °F -4.8 °F -2.2 °F 67% 29.95 in 10.0 mi SW 6.9 mph - N/A   Clear
4:45 PM 6.8 °F -7.8 °F -2.2 °F 67% 29.95 in 10.0 mi SW 10.4 mph - N/A   Clear
5:55 PM 5.0 °F -6.9 °F -4.0 °F 66% 29.94 in 10.0 mi SSW 6.9 mph - N/A   Clear
7:55 PM 1.4 °F -9.9 °F -4.0 °F 78% 29.95 in 10.0 mi SSW 5.8 mph - N/A   Clear
8:55 PM -0.4 °F -10.4 °F -4.0 °F 85% 29.94 in 10.0 mi SSW 4.6 mph - N/A   Clear
9:45 PM -2.2 °F -10.4 °F -5.8 °F 85% 29.95 in 10.0 mi SSW 3.5 mph - N/A   Clear
10:17 PM -1.8 °F - -6.0 °F 83% 29.96 in 10.0 mi Calm Calm - N/A   Clear
10:37 PM -1.7 °F -9.7 °F -5.8 °F 83% 29.95 in 10.0 mi SSE 3.5 mph - N/A   Clear
10:56 PM -2.0 °F -12.2 °F -6.3 °F 82% 29.96 in 10.0 mi SSE 4.6 mph - N/A   Clear
11:17 PM -3.1 °F -15.2 °F -6.9 °F 84% 29.96 in 10.0 mi South 5.8 mph - N/A   Clear
11:36 PM -3.5 °F -13.9 °F -6.9 °F 85% 29.96 in 10.0 mi South 4.6 mph - N/A   Clear
11:57 PM -4.9 °F -13.4 °F -8.1 °F 86% 29.96 in 10.0 mi South 3.5 mph - N/A   Clear